Luxor, Egypt

3:27 PM EET on October 20, 2017 (GMT +0200)
Luxor

Weather History for HELX - February, 2013

Change the Weather History Date:

Thursday, February 7, 2013

  Actual Average Record
Temperature  
Mean Temperature 60 °F -  
Max Temperature 75 °F 76 °F 92 °F (2015)
Min Temperature 46 °F 48 °F 39 °F (2003)
Degree Days  
Heating Degree Days 4    
Growing Degree Days 10 (Base 50)    
Moisture  
Dew Point 43 °F    
Average Humidity 52    
Maximum Humidity 81    
Minimum Humidity 23    
Precipitation  
Precipitation 0.00 in 0.00 in - ()
Sea Level Pressure  
Sea Level Pressure 30.03 in    
Wind  
Wind Speed 1 mph ()    
Max Wind Speed 7 mph    
Max Gust Speed -    
Visibility 4.6 miles    
Events      
Averages and records for this station are not official NWS values.
T = Trace of Precipitation, MM = Missing Value Source: Averaged Metar Reports

Daily Weather History Graph

Daily Weather History Graph

Search for Another Location

Airport or City:

Trip Planner

Search our weather history database for the weather conditions in past years. The results will help you decide how hot, cold, wet, or windy it might be!

Date:

Astronomy

Feb. 07, 2013 Rise Set
Actual Time 6:29 AM EET 5:37 PM EET
Civil Twilight 6:05 AM EET 6:01 PM EET
Nautical Twilight 5:38 AM EET 6:28 PM EET
Astronomical Twilight 5:11 AM EET 6:55 PM EET
Moon 3:41 AM EET (2/7) 2:47 PM EET (2/7)
Length of Visible Light 11h 55m
Length of Day
11h 07m
Waning Crescent, 11% of the Moon is Illuminated
Feb 7
Waning Crescent
Feb 10
New
Feb 17
First Quarter
Feb 25
Full
Mar 4
Last Quarter

Hourly Weather History & Observations

Time (EET) Temp. Dew Point Humidity Pressure Visibility Wind Dir Wind Speed Gust Speed Precip Events Conditions
12:00 AM 55.4 °F 39.2 °F 54% 30.06 in - Calm Calm - N/A   Clear
1:00 AM 53.6 °F 41.0 °F 62% 30.06 in - Calm Calm - N/A   Clear
2:00 AM 55 °F 42 °F 51% 30.08 in 6 mi Calm Calm - -  
2:00 AM 55.4 °F 42.8 °F 63% 30.06 in - Calm Calm - N/A   Clear
3:00 AM 51.8 °F 41.0 °F 67% 30.06 in - SSE 3.5 mph - N/A   Clear
4:00 AM 51.8 °F 41.0 °F 67% 30.06 in - SSE 2.3 mph - N/A   Clear
5:00 AM 50.0 °F 41.0 °F 71% 30.06 in - Calm Calm - N/A   Clear
6:00 AM 48.2 °F 39.2 °F 71% 30.06 in - Calm Calm - N/A   Clear
7:00 AM 46.4 °F 41.0 °F 81% 30.09 in - Calm Calm - N/A   Clear
8:00 AM 53 °F 41 °F 53% 30.10 in 4 mi Calm Calm - -   Haze
8:00 AM 53.6 °F 41.0 °F 62% 30.09 in 4.3 mi Calm Calm - N/A   Unknown
9:00 AM 59.0 °F 44.6 °F 59% 30.09 in 4.3 mi Calm Calm - N/A   Unknown
10:00 AM 62.6 °F 44.6 °F 52% 30.09 in 3.1 mi East 2.3 mph - N/A   Haze
11:00 AM 66.2 °F 50.0 °F 56% 30.09 in 3.1 mi North 3.5 mph - N/A   Haze
12:00 PM 68.0 °F 48.2 °F 49% 30.04 in 4.3 mi NE 6.9 mph - N/A   Unknown
1:00 PM 73.4 °F 44.6 °F 36% 30.01 in - NNE 3.5 mph - N/A   Clear
2:00 PM 74 °F 44 °F 23% 29.98 in 6 mi North 3.5 mph - -  
2:00 PM 73.4 °F 42.8 °F 33% 29.98 in - North 3.5 mph - N/A   Clear
3:00 PM 75.2 °F 42.8 °F 31% 29.98 in - NNE 3.5 mph - N/A   Clear
4:00 PM 71.6 °F 44.6 °F 38% 29.95 in - NNW 2.3 mph - N/A   Clear
5:00 PM 73.4 °F 48.2 °F 41% 29.98 in - NW 3.5 mph - N/A   Clear
6:00 PM 68.0 °F 48.2 °F 49% 29.95 in - Calm Calm - N/A   Clear
7:00 PM 64.4 °F 46.4 °F 52% 29.98 in - WNW 2.3 mph - N/A   Clear
8:00 PM 64 °F 45 °F 38% 29.98 in 6 mi Calm Calm - -  
8:00 PM 64.4 °F 44.6 °F 49% 29.98 in - Calm Calm - N/A   Clear
9:00 PM 60.8 °F 42.8 °F 52% 29.98 in - South 2.3 mph - N/A   Clear
10:00 PM 59.0 °F 41.0 °F 51% 29.98 in - Calm Calm - N/A   Clear
11:00 PM 57.2 °F 41.0 °F 55% 29.98 in - Calm Calm - N/A   Clear